カタログに戻る

NUSAT-40

C SHOEMAKER

運用中科学PO
NORAD 56943·PAYLOAD·🇦🇷 Argentina

打ち上げ Jun 12, 2023 から Vandenberg Space Force Base

Loading…

次のパス (今後24時間)

TLE

最新Source: Space-Track

元期: Sep 14, 2026, 05:42 UTC

1 56943U 23084M   26257.23770882  .04924417  25723-5  61601-3 0  9995
2 56943  97.4777  52.8898 0011724 268.7756  91.2198 16.35922825182965

AllMySatでNUSAT-40をリアルタイム追跡

Download on the App Store